Temperature
20 20 21 21 21 20 20 19 19 19 18 19 18 18 18 18 19 19 19 19 19 19 20 19 19 19 19 19 18 18 18 18 18 18 18 17 17 17 17 17 17 17 16 16
20 20 20 21 21 21 20 19 19 19 19 18 18 18 18 18 18 18 19 19 19 19 19 19 19 19 19 18 18 18 18 18 18 18 17 17 17 17 17 17 16 16 16 16
18 19 20 20 20 20 20 19 19 19 19 18 17 17 17 18 18 18 19 19 19 19 19 19 19 19 18 18 18 18 17 17 17 17 17 17 17 16 16 16 16 16 16 16
16 19 20 19 19 19 19 19 18 18 18 17 17 18 18 18 18 18 18 19 19 19 19 19 19 18 18 18 17 17 17 17 17 17 17 16 16 16 16 16 16 16 16 16
15 17 18 19 19 18 18 18 18 17 17 17 17 17 17 18 18 18 18 18 18 18 18 18 18 18 17 17 17 17 17 17 17 16 16 16 16 16 16 15 15 15 15 15
14 17 18 18 19 19 18 18 18 17 16 16 17 16 16 18 18 18 18 18 18 18 17 17 17 17 17 17 16 16 16 16 16 16 16 16 16 16 15 15 15 15 15 15
14 16 16 17 18 19 18 18 18 17 17 16 16 16 17 18 17 17 17 17 17 17 17 17 17 17 16 16 16 16 16 16 16 16 15 15 15 15 15 15 15 15 14 14
13 15 16 17 17 17 17 18 18 17 17 17 17 17 17 17 17 17 17 17 17 16 16 16 16 16 16 16 16 16 16 16 15 15 15 15 15 15 15 14 14 14 14 14
13 14 15 16 17 18 18 18 18 18 17 17 17 17 17 16 16 16 16 16 16 16 16 16 16 16 16 15 15 15 15 15 15 15 15 14 14 14 14 14 14 14 14 14
13 14 15 16 16 17 17 18 17 17 17 17 17 16 16 16 16 16 16 16 16 16 16 15 15 15 15 15 15 15 15 15 14 14 14 14 14 14 14 13 13 13 13 13
13 13 14 16 16 17 17 17 17 17 16 16 16 16 16 16 16 15 15 15 15 15 15 15 15 15 14 14 14 14 14 14 14 14 14 14 14 13 13 13 13 13 13 13
13 14 13 15 16 16 17 16 16 16 16 16 16 16 16 15 15 15 15 15 15 15 15 14 14 14 14 14 14 14 14 14 14 14 14 13 13 13 13 13 13 13 13 13
16 16 16 16 16 16 16 16 16 16 16 15 15 16 15 15 15 15 15 14 14 14 14 14 14 14 14 14 14 13 13 13 13 13 13 13 13 13 13 13 12 12 12 12
16 15 15 15 15 16 16 16 15 15 15 15 15 15 15 15 15 14 14 14 14 14 14 13 13 13 13 13 13 13 13 13 13 13 13 13 13 13 13 12 12 12 12 12
15 16 15 15 15 15 15 15 15 15 14 14 14 14 14 14 14 14 14 14 13 13 13 13 13 13 13 13 13 13 13 13 13 13 13 12 12 12 12 12 12 12 12 12
15 15 15 15 15 15 15 15 14 14 14 14 14 14 14 14 14 13 13 13 13 13 13 13 13 13 13 12 12 12 12 13 12 12 12 12 12 12 12 12 12 12 11 11
14 14 14 14 14 14 14 14 14 14 14 14 14 13 13 13 13 13 13 13 13 13 13 13 12 12 12 12 12 12 12 12 12 12 12 12 12 12 12 12 11 11 11 11
14 14 14 14 14 14 14 14 14 14 14 13 13 13 13 13 13 13 13 13 13 12 12 12 12 12 12 12 12 12 12 12 12 12 11 11 12 12 11 11 11 11 11 11
14 14 14 14 14 13 13 13 13 13 13 13 13 13 13 13 13 12 12 12 12 12 12 12 12 12 12 12 12 12 11 11 11 11 11 11 11 11 11 11 11 11 11 11
14 14 14 14 13 13 13 13 13 13 13 13 13 12 12 12 12 12 12 12 12 12 12 11 11 11 11 11 11 11 11 11 11 11 11 11 11 11 11 11 11 11 10 10
13 13 13 13 13 13 13 13 13 13 13 13 12 12 12 12 12 12 12 12 12 11 11 11 11 11 11 11 11 11 11 11 11 11 11 10 10 10 10 10 10 10 10 10
13 13 13 13 13 13 13 13 13 12 12 12 12 12 12 12 12 12 12 12 11 11 11 11 11 11 11 11 11 11 11 11 11 10 10 10 10 10 10 10 10 10 10 10
12 12 12 12 12 12 12 12 12 12 12 12 12 12 12 12 12 12 11 11 11 11 11 11 11 11 11 10 10 10 10 10 10 10 10 10 10 10 10 10 10 9 9 9
12 12 12 12 12 12 12 12 12 12 12 12 11 11 11 11 11 11 11 11 11 11 11 11 11 10 10 10 10 10 10 10 10 10 10 10 10 10 10 9 9 9 9 9
12 12 12 12 12 12 12 12 12 11 11 11 11 11 11 11 11 11 11 11 11 11 11 11 10 10 10 10 10 10 10 10 10 10 10 9 9 9 9 9 9 9 9 9
12 12 12 11 11 12 12 12 11 11 11 11 11 11 11 11 11 11 11 11 11 11 11 10 10 10 10 10 10 10 10 10 9 9 9 9 9 9 9 9 9 8 8 8
11 11 11 11 11 11 12 12 12 11 11 11 11 11 11 11 11 11 11 10 10 10 10 10 10 10 10 10 10 10 9 9 9 9 9 9 9 9 8 8 8 8 8 8
Wind_Speed
3 3 3 2 2 3 5 7 7 7 7 8 6 5 4 2 2 2 2 2 3 3 3 3 3 4 4 4 3 4 4 4 5 4 4 3 3 3 2 2 3 3 3 3
1 1 1 1 1 3 3 3 4 3 5 6 3 1 1 1 1 2 3 4 3 3 4 4 4 4 4 4 4 4 4 5 4 3 3 3 3 3 2 2 2 2 3 3
2 4 1 2 4 4 3 2 4 5 6 3 1 3 4 3 3 4 4 3 3 4 4 4 4 4 5 4 4 4 4 4 4 3 3 3 3 2 2 3 2 2 3 3
1 2 3 7 2 4 4 2 2 3 3 3 4 4 2 1 2 2 2 3 3 3 3 2 1 1 2 2 3 4 3 4 3 3 3 3 3 2 3 2 2 3 3 3
3 3 4 5 2 3 4 3 2 3 3 2 1 2 2 2 1 2 2 2 2 2 1 0 0 1 2 2 2 3 3 3 3 3 3 2 2 3 2 2 2 2 2 2
4 4 6 6 3 1 4 2 3 2 2 1 3 1 4 3 1 2 2 2 2 3 2 1 1 1 2 3 3 3 3 3 3 3 3 3 3 3 2 1 2 2 2 2
4 4 5 5 4 2 4 6 4 3 2 2 2 3 3 1 1 1 2 2 3 2 1 1 1 1 2 2 3 3 2 2 2 2 3 3 3 1 1 1 0 1 1 2
4 3 6 3 2 4 6 2 1 2 2 2 1 1 1 1 1 1 2 2 2 2 2 2 2 2 1 2 2 1 1 1 2 2 2 1 1 1 1 1 0 1 1 2
6 6 5 3 3 2 2 2 2 2 1 2 1 0 1 1 1 1 1 2 2 2 2 2 1 1 1 2 1 0 1 1 1 1 1 1 2 2 1 1 1 1 2 2
2 5 4 4 3 2 1 1 1 1 2 2 2 1 1 0 0 1 1 1 2 2 2 2 2 1 1 2 1 0 1 1 1 1 1 0 1 1 1 1 1 2 2 2
3 4 4 4 3 2 2 2 2 2 1 2 2 2 2 2 1 0 1 1 1 0 0 2 2 2 2 1 0 0 0 0 0 1 1 0 0 1 2 3 3 3 3 3
6 6 4 5 4 1 0 1 1 2 2 1 1 2 2 2 1 1 1 0 1 1 1 2 2 2 3 2 1 1 1 1 0 0 0 0 0 1 2 1 1 2 4 4
5 4 4 4 2 1 2 1 0 0 1 0 0 1 2 2 2 1 1 1 1 2 2 2 2 2 3 2 1 1 1 0 0 0 0 1 1 1 1 2 2 2 1 1
4 2 2 2 2 2 1 1 1 1 1 1 1 2 2 2 2 1 1 2 1 0 1 1 1 2 3 2 1 1 1 0 0 1 1 1 1 1 1 1 1 2 3 2
4 3 4 2 1 1 1 2 2 1 0 0 1 2 3 3 2 2 2 1 0 1 1 1 1 3 3 1 0 0 0 0 0 0 0 0 0 0 0 0 0 1 2 3
2 1 2 2 2 2 2 2 2 2 2 2 2 2 2 2 2 2 1 1 1 0 1 1 2 3 2 1 1 0 0 0 0 0 0 1 1 0 0 0 0 1 1 1
3 3 3 3 3 3 3 3 3 3 3 3 3 3 2 2 1 1 1 1 1 1 1 1 2 3 1 1 0 0 0 1 1 1 0 0 0 0 0 1 0 0 1 1
7 7 6 6 5 4 3 2 2 3 3 3 3 3 3 3 3 3 2 1 1 1 2 2 2 2 1 1 0 1 1 0 0 0 0 0 0 1 1 1 1 1 1 1
3 4 4 5 5 4 3 3 3 3 3 2 3 3 3 3 3 3 2 1 1 2 3 3 2 1 1 1 0 1 1 1 0 0 1 1 0 0 0 0 1 0 0 1
1 1 2 3 4 4 4 3 3 3 3 3 3 2 2 3 3 3 2 2 3 3 3 2 2 1 1 1 0 1 1 1 1 1 1 1 1 1 1 1 1 1 1 0
0 0 1 2 3 3 4 4 4 4 3 3 4 4 4 3 2 3 3 3 4 3 2 2 1 2 2 1 1 1 1 1 1 1 1 2 2 2 2 2 1 1 1 1
1 0 1 2 2 3 3 3 3 3 3 3 3 3 3 3 2 2 3 4 4 3 1 2 2 2 2 1 1 1 1 1 1 1 2 2 2 2 2 2 2 2 2 2
1 1 1 2 2 3 2 2 3 3 4 4 4 4 5 4 4 3 3 3 3 3 2 2 3 2 2 1 1 1 1 1 1 2 2 2 2 2 2 2 2 2 2 2
1 1 2 2 1 1 1 3 2 2 3 3 3 4 4 3 2 3 3 3 3 3 2 3 2 2 2 1 1 1 1 1 2 2 2 2 2 2 2 2 2 2 2 2
1 1 1 0 1 2 2 2 1 1 1 1 2 2 3 3 3 3 2 2 3 2 2 3 2 2 1 1 1 1 2 2 2 2 2 2 2 2 2 2 2 2 2 2
1 1 2 2 2 2 1 1 1 1 1 1 2 2 1 1 2 2 2 2 2 2 2 2 1 1 1 1 1 2 2 2 2 2 2 2 2 2 2 2 2 2 2 2
1 1 1 1 1 1 1 1 1 2 2 2 2 1 1 1 1 1 1 1 1 1 1 1 1 1 1 1 1 2 2 2 2 2 2 2 2 2 2 2 2 2 2 2
Wind_Direction
216 220 172 183 199 163 169 183 187 225 225 255 259 246 242 239 249 231 241 236 224 220 218 212 220 225 219 220 212 199 196 208 220 222 222 227 233 239 240 242 254 255 257 262
4 17 152 150 256 190 188 177 195 219 252 260 262 201 215 240 248 258 258 254 240 227 220 222 224 222 213 212 203 192 204 218 226 220 224 233 240 241 241 246 256 258 255 257
238 295 51 280 249 205 192 194 174 214 249 291 275 228 216 215 236 255 264 265 251 239 231 226 226 218 214 208 198 193 204 220 222 215 220 231 234 230 239 245 249 260 260 256
137 82 218 244 248 160 158 203 212 236 272 253 245 247 221 208 229 267 285 275 264 252 249 249 232 230 209 198 198 203 210 220 218 216 224 230 228 225 239 247 244 250 260 258
128 173 261 287 249 175 169 252 262 239 291 329 357 24 334 308 271 256 283 295 294 287 266 266 185 212 177 179 192 205 220 223 213 207 211 219 232 239 236 236 247 249 260 254
132 167 222 246 272 218 131 258 276 222 233 334 80 70 275 295 320 318 346 5 8 27 34 29 315 165 166 191 188 212 222 224 208 193 194 203 215 227 223 227 245 254 277 267
155 205 253 262 290 99 149 239 261 221 213 182 187 223 260 286 329 358 15 24 30 44 44 6 342 138 174 194 213 234 224 221 218 208 206 203 197 199 180 180 298 322 304 293
150 186 247 289 96 167 215 236 227 217 207 192 208 291 2 47 68 59 35 25 29 30 5 1 29 73 153 239 260 273 181 200 226 229 225 197 173 169 138 146 128 324 313 312
191 214 250 276 229 248 197 201 226 207 207 165 163 171 50 58 69 52 36 20 21 33 19 4 6 108 206 285 326 13 176 221 243 241 234 188 177 168 142 155 189 267 265 279
242 269 279 297 309 313 274 220 234 187 164 154 180 181 139 161 345 12 7 4 25 40 29 354 343 335 278 293 315 102 197 224 219 212 241 170 191 185 180 206 222 249 258 264
255 280 319 317 304 316 359 39 70 75 120 159 162 173 170 185 224 255 346 350 17 67 17 328 342 345 339 333 61 72 318 203 199 206 192 170 293 276 240 234 219 224 243 244
220 226 207 253 274 293 57 49 71 74 57 55 158 179 170 186 205 195 233 301 335 331 330 325 340 345 342 350 66 107 48 7 352 39 91 169 218 349 353 286 251 230 234 232
218 229 215 245 266 213 179 192 199 140 162 268 278 174 172 182 190 187 212 230 254 287 308 324 341 337 330 344 13 92 123 301 268 151 179 194 194 197 322 355 21 34 310 261
226 179 219 234 245 230 184 167 103 91 79 158 181 158 153 164 167 185 242 262 256 307 344 347 353 323 319 350 29 32 37 61 157 213 220 198 193 212 217 227 334 345 358 11
243 211 204 216 208 192 145 119 99 66 33 305 176 173 169 168 184 223 254 261 101 67 347 359 353 315 317 337 316 121 35 338 20 133 114 89 113 162 167 158 267 335 0 13
232 163 171 183 208 212 183 173 187 228 227 232 230 219 203 186 195 216 235 191 155 243 290 313 299 293 292 284 306 340 301 344 45 71 63 64 83 87 78 79 28 1 349 356
181 216 218 222 231 239 234 225 218 226 232 231 229 220 200 171 191 250 257 235 199 261 288 299 297 308 307 268 201 212 338 3 27 34 359 325 52 181 165 142 138 335 323 357
210 218 214 209 214 220 229 228 222 228 229 231 217 198 201 203 217 239 247 260 17 349 318 302 305 323 325 295 192 178 189 208 183 267 308 310 303 259 220 199 214 254 329 40
227 223 220 212 206 197 201 219 229 233 229 205 200 215 226 229 230 229 228 220 242 278 289 294 289 308 312 301 178 170 181 204 254 272 277 291 290 318 283 233 246 269 12 58
238 227 214 209 199 194 201 219 229 236 229 204 200 209 230 237 219 207 206 229 243 247 262 273 260 256 279 287 287 192 200 214 230 252 256 253 250 268 274 253 243 247 261 254
298 229 230 224 227 224 216 214 215 230 239 210 202 214 225 232 219 203 201 245 269 258 252 260 262 266 263 256 241 205 207 215 221 223 229 238 239 247 254 252 248 246 249 251
264 276 283 259 236 250 246 220 211 220 229 226 219 212 208 223 237 237 229 234 253 258 250 254 255 252 251 248 237 221 220 222 226 223 227 235 234 239 244 244 246 250 251 250
246 253 267 256 237 247 261 236 220 217 221 223 213 208 211 216 215 212 248 255 243 238 237 248 250 235 226 237 245 236 229 228 234 237 237 236 232 232 234 243 247 247 251 256
267 276 285 271 219 186 252 255 231 219 216 221 222 215 205 208 235 236 233 239 230 225 238 244 234 221 219 243 247 251 254 249 243 240 234 227 227 228 229 237 251 253 249 255
266 295 310 152 192 223 233 226 197 196 196 228 247 243 224 209 215 233 230 223 218 217 244 250 238 221 222 239 247 254 253 244 234 228 229 226 228 227 227 229 235 244 246 247
279 275 262 240 228 221 216 195 193 216 216 240 269 267 244 209 199 209 215 217 218 224 236 253 242 214 217 235 257 265 258 250 240 232 225 228 232 230 231 232 237 240 246 245
323 322 302 316 316 252 190 185 202 228 218 208 230 259 234 193 186 193 195 207 225 237 242 242 226 210 220 235 247 260 258 248 240 232 229 231 234 236 237 233 233 239 242 242
Height
1500 1497 1497 1498 1498 1501 1504 1509 1515 1511 1509 1500 1495 1493 1492 1492 1492 1492 1493 1493 1493 1493 1494 1495 1497 1498 1499 1499 1500 1501 1502 1502 1503 1503 1503 1504 1504 1504 1504 1504 1504 1504 1504 1504
1501 1497 1497 1499 1497 1497 1499 1502 1504 1503 1503 1494 1492 1492 1492 1492 1491 1491 1491 1491 1491 1491 1492 1492 1493 1494 1495 1496 1497 1498 1498 1499 1500 1500 1500 1500 1500 1500 1500 1500 1500 1500 1500 1500
1510 1503 1499 1507 1499 1497 1498 1498 1500 1503 1498 1492 1492 1490 1490 1490 1490 1489 1489 1489 1489 1489 1489 1490 1491 1492 1493 1493 1494 1494 1495 1495 1497 1497 1497 1496 1497 1496 1496 1496 1496 1497 1497 1497
1514 1509 1516 1503 1492 1492 1495 1495 1495 1494 1492 1490 1489 1488 1488 1489 1488 1488 1488 1488 1488 1488 1488 1488 1489 1490 1490 1491 1491 1492 1491 1492 1492 1493 1493 1493 1493 1493 1493 1493 1493 1493 1494 1494
1518 1517 1511 1498 1491 1492 1495 1496 1492 1492 1490 1489 1488 1488 1489 1488 1488 1488 1487 1487 1487 1487 1487 1487 1487 1488 1488 1488 1489 1489 1489 1488 1489 1489 1490 1490 1490 1490 1490 1490 1490 1490 1491 1491
1515 1514 1516 1500 1488 1487 1491 1498 1490 1489 1489 1489 1488 1492 1489 1487 1487 1487 1487 1486 1486 1486 1486 1486 1486 1486 1486 1486 1486 1486 1485 1485 1486 1486 1487 1486 1486 1487 1487 1487 1487 1488 1488 1488
1513 1512 1505 1492 1487 1487 1501 1499 1488 1487 1487 1488 1488 1488 1487 1486 1486 1486 1486 1485 1485 1485 1484 1484 1484 1484 1484 1484 1483 1483 1484 1484 1484 1484 1484 1484 1484 1484 1484 1484 1485 1485 1486 1486
1513 1512 1506 1488 1487 1491 1491 1486 1486 1485 1486 1486 1486 1486 1485 1484 1484 1484 1485 1484 1484 1484 1483 1483 1483 1482 1482 1481 1482 1482 1482 1482 1482 1482 1482 1482 1482 1482 1482 1483 1483 1483 1483 1483
1502 1500 1490 1487 1486 1486 1485 1485 1484 1484 1484 1485 1485 1485 1484 1484 1484 1484 1484 1484 1484 1483 1482 1482 1482 1481 1480 1480 1480 1480 1480 1480 1480 1480 1480 1480 1480 1480 1480 1480 1481 1481 1481 1480
1496 1491 1488 1486 1485 1485 1484 1484 1483 1483 1483 1483 1483 1484 1484 1484 1484 1483 1483 1483 1483 1482 1481 1481 1481 1481 1480 1479 1479 1479 1479 1479 1478 1478 1479 1479 1478 1478 1478 1478 1478 1478 1478 1478
1493 1489 1486 1485 1484 1484 1483 1483 1482 1482 1483 1483 1483 1483 1483 1484 1484 1483 1483 1483 1483 1482 1482 1481 1480 1480 1479 1478 1478 1477 1477 1477 1477 1477 1477 1477 1476 1477 1477 1476 1476 1477 1476 1476
1490 1486 1486 1484 1484 1483 1482 1482 1481 1481 1481 1482 1482 1482 1482 1482 1483 1482 1483 1482 1482 1482 1481 1481 1480 1479 1479 1478 1477 1476 1476 1475 1476 1476 1475 1475 1475 1475 1475 1475 1475 1475 1475 1474
1483 1482 1483 1483 1483 1482 1482 1481 1481 1481 1480 1480 1481 1481 1481 1481 1482 1482 1482 1482 1481 1481 1481 1480 1479 1478 1478 1477 1477 1476 1476 1475 1475 1475 1475 1475 1474 1474 1473 1474 1474 1473 1473 1472
1480 1481 1481 1481 1481 1481 1481 1480 1480 1480 1480 1480 1480 1480 1480 1480 1480 1481 1481 1481 1481 1480 1480 1479 1478 1478 1477 1476 1476 1475 1475 1475 1475 1475 1474 1474 1473 1473 1473 1472 1472 1471 1471 1471
1478 1479 1479 1479 1479 1479 1479 1479 1479 1478 1478 1478 1478 1478 1478 1478 1479 1479 1480 1480 1480 1480 1479 1479 1478 1477 1477 1476 1475 1474 1474 1474 1474 1474 1473 1473 1472 1472 1471 1471 1471 1471 1470 1470
1475 1476 1476 1477 1477 1477 1477 1477 1477 1477 1477 1477 1477 1477 1477 1477 1478 1478 1478 1479 1479 1478 1478 1478 1477 1477 1476 1476 1474 1474 1474 1473 1473 1473 1472 1472 1471 1471 1470 1470 1470 1470 1469 1469
1473 1473 1474 1474 1475 1475 1475 1476 1476 1476 1476 1475 1475 1476 1476 1476 1476 1476 1477 1477 1477 1477 1477 1477 1476 1476 1475 1474 1474 1473 1473 1472 1472 1472 1472 1471 1471 1470 1469 1469 1469 1469 1468 1468
1471 1471 1472 1472 1472 1473 1473 1474 1474 1474 1474 1474 1474 1474 1474 1474 1474 1474 1475 1476 1476 1475 1475 1475 1475 1474 1473 1473 1473 1472 1472 1472 1471 1471 1471 1470 1470 1469 1469 1468 1468 1468 1467 1467
1468 1469 1469 1470 1471 1471 1471 1472 1472 1473 1472 1472 1472 1472 1472 1472 1473 1473 1473 1473 1473 1473 1473 1474 1473 1473 1472 1472 1472 1471 1470 1470 1469 1469 1469 1469 1468 1468 1467 1467 1466 1466 1466 1466
1465 1466 1467 1467 1468 1469 1469 1470 1470 1470 1471 1471 1470 1470 1470 1470 1471 1471 1471 1471 1471 1472 1472 1472 1471 1471 1470 1470 1470 1469 1468 1468 1467 1467 1467 1467 1467 1466 1465 1465 1465 1465 1464 1464
1464 1464 1464 1465 1465 1466 1467 1467 1468 1468 1468 1468 1468 1468 1468 1468 1468 1469 1469 1469 1469 1470 1470 1470 1469 1468 1468 1468 1468 1467 1466 1466 1465 1465 1465 1465 1464 1464 1464 1463 1463 1463 1463 1463
1462 1462 1462 1463 1463 1463 1464 1465 1465 1465 1465 1465 1465 1465 1465 1465 1466 1466 1466 1467 1467 1467 1467 1467 1467 1467 1466 1466 1465 1465 1464 1464 1463 1463 1463 1463 1462 1462 1461 1461 1461 1461 1461 1461
1460 1460 1460 1460 1461 1461 1461 1462 1462 1462 1462 1462 1462 1462 1462 1463 1463 1464 1464 1465 1465 1465 1465 1465 1465 1465 1464 1464 1463 1462 1462 1461 1461 1461 1461 1460 1460 1459 1459 1459 1459 1459 1459 1458
1458 1458 1458 1458 1459 1459 1459 1459 1459 1460 1460 1460 1460 1460 1460 1461 1461 1462 1463 1463 1463 1464 1463 1463 1463 1462 1462 1461 1460 1460 1459 1459 1459 1458 1458 1457 1457 1457 1457 1456 1456 1456 1456 1456
1457 1457 1457 1457 1457 1457 1457 1457 1457 1457 1457 1458 1458 1458 1458 1459 1459 1460 1461 1461 1461 1461 1461 1461 1460 1460 1460 1459 1458 1458 1457 1457 1456 1456 1455 1455 1454 1454 1454 1454 1454 1453 1453 1453
1456 1456 1456 1456 1456 1455 1455 1455 1455 1455 1456 1456 1456 1456 1456 1457 1457 1458 1458 1458 1459 1459 1459 1458 1458 1458 1457 1457 1456 1455 1455 1455 1454 1454 1453 1453 1452 1452 1451 1451 1451 1450 1451 1451
1455 1455 1454 1454 1454 1454 1454 1454 1454 1454 1454 1454 1455 1455 1455 1455 1456 1456 1456 1456 1456 1456 1456 1456 1456 1456 1455 1455 1454 1454 1453 1453 1452 1451 1450 1450 1450 1449 1448 1448 1448 1448 1448 1448